Location: Tucson
(32.2217°N, 110.9265°W)
Time: 01:54:19
(UTC-07:00)

Tiros 1 - Pass Details

Date: 29 October 2021
Orbit: 630 x 663 km, 48.4° (Epoch: 07 December)

Event Time Altitude Azimuth Distance (km) Brightness Sun altitude
Rises 14:02:20 0° 315° (NW) 2,965 10.5 36.4°
Reaches altitude 10° 14:04:50 10° 323° (NW) 2,047 9.7 36.1°
Maximum altitude 14:09:14 38° 33° (NNE) 973 8.0 35.6°
Drops below altitude 10° 14:13:36 10° 102° (ESE) 2,020 9.6 35.0°
Sets 14:16:02 0° 110° (ESE) 2,921 10.4 34.7°
